DW8935 Weather Reports


time (UTC)temp
C
wind
direction
speed
KPH
gust
KPH
rain 1hr
cm
rain 24hr
cm
rain mn
cm
humidity
%
barometer
mb
20230208160534 15 82 0.0 0.0 0.00 0.00 0.00 87 1010.5
20230208160029 15 82 0.0 0.0 0.00 0.00 0.00 87 1010.6
20230208155527 15 82 0.0 0.0 0.00 0.00 0.00 87 1010.6
20230208155028 15 82 0.0 0.0 0.00 0.00 0.00 87 1010.6
20230208154527 15 82 0.0 0.0 0.00 0.00 0.00 87 1010.6
20230208153526 15 82 0.0 4.8 0.00 0.00 0.00 87 1010.7
20230208153026 15 82 0.0 4.8 0.00 0.00 0.00 86 1010.8
20230208152525 16 70 1.6 6.4 0.00 0.00 0.00 86 1010.8
20230208152024 16 69 1.6 6.4 0.00 0.00 0.00 86 1010.8
20230208151523 16 84 0.0 6.4 0.00 0.00 0.00 85 1010.8
20230208151022 16 69 1.6 6.4 0.00 0.00 0.00 85 1010.8
20230208150521 16 95 0.0 6.4 0.00 0.00 0.00 86 1010.9
20230208150032 16 111 1.6 9.7 0.00 0.00 0.00 85 1011.0
20230208145520 16 94 3.2 9.7 0.00 0.00 0.00 85 1011.1
20230208145019 16 109 1.6 8.0 0.00 0.00 0.00 85 1011.3
20230208144519 16 101 0.0 8.0 0.00 0.00 0.00 85 1011.3
20230208143522 16 104 0.0 9.7 0.00 0.00 0.00 85 1011.4
20230208143018 16 98 1.6 12.9 0.00 0.00 0.00 85 1011.5
20230208142518 16 84 3.2 12.9 0.00 0.00 0.00 84 1011.5
20230208142018 16 101 0.0 14.5 0.00 0.00 0.00 84 1011.5
20230208141528 16 92 6.4 14.5 0.00 0.00 0.00 84 1011.7
20230208141016 16 91 3.2 12.9 0.00 0.00 0.00 84 1011.7
20230208140517 16 106 3.2 11.3 0.00 0.00 0.00 84 1011.8
20230208140019 16 102 3.2 11.3 0.00 0.00 0.00 84 1011.8
20230208135515 16 104 3.2 14.5 0.00 0.00 0.00 84 1011.9
20230208135014 16 109 6.4 14.5 0.00 0.00 0.00 84 1012.0
20230208134513 16 95 3.2 16.1 0.00 0.00 0.00 83 1012.1
20230208133512 16 98 4.8 14.5 0.00 0.00 0.00 83 1012.1
20230208133012 16 93 3.2 12.9 0.00 0.00 0.00 83 1012.0
20230208132510 16 123 1.6 12.9 0.00 0.00 0.00 83 1012.1
20230208132010 16 104 3.2 12.9 0.00 0.00 0.00 82 1012.1
20230208131510 16 118 3.2 16.1 0.00 0.00 0.00 82 1012.1
20230208131009 16 97 4.8 14.5 0.00 0.00 0.00 81 1012.2
20230208130508 16 88 3.2 14.5 0.00 0.00 0.00 81 1012.1
20230208130008 16 81 4.8 11.3 0.00 0.00 0.00 81 1012.1
20230208125508 17 108 6.4 14.5 0.00 0.00 0.00 80 1012.1
20230208125008 17 91 4.8 14.5 0.00 0.00 0.00 80 1012.1
20230208124508 17 107 8.0 14.5 0.00 0.00 0.00 79 1012.3
20230208123506 17 103 1.6 17.7 0.00 0.00 0.00 78 1012.3
20230208123007 17 111 6.4 17.7 0.00 0.00 0.00 78 1012.3
20230208122506 17 118 3.2 12.9 0.00 0.00 0.00 77 1012.4
20230208122005 17 116 1.6 16.1 0.00 0.00 0.00 77 1012.4
20230208121505 17 97 6.4 17.7 0.00 0.00 0.00 77 1012.4
20230208121008 17 84 6.4 17.7 0.00 0.00 0.00 76 1012.2
20230208120505 17 96 6.4 14.5 0.00 0.00 0.00 76 1012.2
20230208120008 17 93 3.2 14.5 0.00 0.00 0.00 75 1012.3
20230208115505 17 92 4.8 12.9 0.00 0.00 0.00 75 1012.3
20230208115005 17 141 4.8 12.9 0.00 0.00 0.00 75 1012.5
20230208114513 17 92 4.8 12.9 0.00 0.00 0.00 75 1012.6
20230208113507 17 106 3.2 11.3 0.00 0.00 0.00 74 1012.8
20230208113008 17 76 3.2 12.9 0.00 0.00 0.00 74 1012.8
20230208112508 17 102 4.8 14.5 0.00 0.00 0.00 73 1012.8
20230208112007 17 124 4.8 14.5 0.00 0.00 0.00 73 1012.7
20230208111508 17 83 4.8 16.1 0.00 0.00 0.00 73 1012.8
20230208111007 17 107 8.0 16.1 0.00 0.00 0.00 73 1012.8
20230208110507 17 95 6.4 16.1 0.00 0.00 0.00 72 1012.8
20230208110007 17 131 6.4 16.1 0.00 0.00 0.00 72 1012.9
20230208105510 17 44 6.4 16.1 0.00 0.00 0.00 71 1012.9
20230208105007 17 81 6.4 17.7 0.00 0.00 0.00 71 1012.9
20230208104510 18 115 3.2 17.7 0.00 0.00 0.00 71 1013.0
20230208103506 18 101 4.8 16.1 0.00 0.00 0.00 70 1012.9
20230208103006 18 103 4.8 19.3 0.00 0.00 0.00 69 1013.0
20230208102506 18 77 6.4 17.7 0.00 0.00 0.00 69 1012.9
20230208102006 18 98 6.4 19.3 0.00 0.00 0.00 69 1012.9
20230208101507 18 94 8.0 19.3 0.00 0.00 0.00 68 1012.9
20230208101006 18 88 8.0 20.9 0.00 0.00 0.00 67 1013.1
20230208100505 19 93 9.7 20.9 0.00 0.00 0.00 66 1013.1
20230208100006 19 112 6.4 20.9 0.00 0.00 0.00 66 1013.0
20230208095508 19 91 11.3 17.7 0.00 0.00 0.00 65 1012.9
20230208095006 19 117 9.7 20.9 0.00 0.00 0.00 64 1012.8
20230208094505 20 99 11.3 20.9 0.00 0.00 0.00 64 1012.8
20230208093506 20 80 9.7 20.9 0.00 0.00 0.00 63 1012.8
20230208093006 20 113 6.4 17.7 0.00 0.00 0.00 62 1012.7
20230208092505 20 80 11.3 17.7 0.00 0.00 0.00 61 1012.7
20230208092005 21 127 8.0 22.5 0.00 0.00 0.00 61 1012.7
20230208091506 21 97 8.0 24.1 0.00 0.00 0.00 60 1012.6
20230208091007 21 86 6.4 20.9 0.00 0.00 0.00 59 1012.6
20230208090505 21 77 9.7 22.5 0.00 0.00 0.00 58 1012.5
20230208090006 21 106 11.3 22.5 0.00 0.00 0.00 58 1012.5
20230208085508 22 83 9.7 19.3 0.00 0.00 0.00 58 1012.4
20230208085007 22 83 11.3 24.1 0.00 0.00 0.00 57 1012.4
20230208084504 22 80 11.3 20.9 0.00 0.00 0.00 57 1012.4
20230208083504 23 122 9.7 24.1 0.00 0.00 0.00 55 1012.3
20230208083004 23 73 8.0 24.1 0.00 0.00 0.00 54 1012.3
20230208082504 24 88 11.3 20.9 0.00 0.00 0.00 53 1012.2
20230208082003 24 94 11.3 27.4 0.00 0.00 0.00 52 1012.2
20230208081504 25 70 11.3 22.5 0.00 0.00 0.00 50 1012.1
20230208081003 25 111 9.7 24.1 0.00 0.00 0.00 50 1012.2
20230208080503 25 98 11.3 24.1 0.00 0.00 0.00 50 1012.1
20230208080004 26 69 9.7 22.5 0.00 0.00 0.00 49 1012.1
20230208075504 26 103 8.0 22.5 0.00 0.00 0.00 49 1012.0
20230208075002 26 93 6.4 20.9 0.00 0.00 0.00 50 1012.0
20230208074501 25 170 0.0 12.9 0.00 0.00 0.00 57 1011.9
20230208073559 25 154 3.2 14.5 0.00 0.00 0.00 56 1012.1
20230208073059 25 148 4.8 14.5 0.00 0.00 0.00 56 1012.2
20230208072559 25 189 4.8 16.1 0.00 0.00 0.00 56 1012.3
20230208072056 25 181 4.8 16.1 0.00 0.00 0.00 56 1012.4
20230208071556 25 113 4.8 16.1 0.00 0.00 0.00 56 1012.3
20230208071054 25 191 6.4 16.1 0.00 0.00 0.00 57 1012.3
20230208070554 25 149 4.8 14.5 0.00 0.00 0.00 57 1012.3
20230208070054 25 170 6.4 16.1 0.00 0.00 0.00 58 1012.3
20230208065552 25 138 3.2 17.7 0.00 0.00 0.00 58 1012.4
20230208065052 25 161 6.4 19.3 0.00 0.00 0.00 59 1012.4
20230208064555 25 148 4.8 20.9 0.00 0.00 0.00 60 1012.4
20230208063552 24 141 3.2 19.3 0.00 0.00 0.00 60 1012.5
20230208063051 24 158 4.8 19.3 0.00 0.00 0.00 60 1012.6
20230208062556 24 171 4.8 16.1 0.00 0.00 0.00 61 1012.6
20230208062054 23 195 9.7 17.7 0.00 0.00 0.00 61 1012.7
20230208061551 23 150 6.4 19.3 0.00 0.00 0.00 62 1012.7
20230208061049 23 154 6.4 19.3 0.00 0.00 0.00 62 1012.8
20230208060548 23 168 6.4 19.3 0.00 0.00 0.00 63 1012.9
20230208060126 23 165 6.4 20.9 0.00 0.00 0.00 63 1012.9
20230208055549 22 199 11.3 20.9 0.00 0.00 0.00 63 1012.9
20230208055048 22 117 8.0 16.1 0.00 0.00 0.00 62 1013.0
20230208054547 22 153 6.4 17.7 0.00 0.00 0.00 62 1013.0
20230208053545 22 161 9.7 24.1 0.00 0.00 0.00 62 1013.1
20230208053045 22 175 12.9 24.1 0.00 0.00 0.00 62 1013.2
20230208052543 22 199 9.7 24.1 0.00 0.00 0.00 63 1013.4
20230208052042 22 187 11.3 22.5 0.00 0.00 0.00 63 1013.4
20230208051543 22 180 6.4 22.5 0.00 0.00 0.00 64 1013.4
20230208051041 22 196 8.0 19.3 0.00 0.00 0.00 63 1013.5
20230208050543 22 156 6.4 19.3 0.00 0.00 0.00 63 1013.5
20230208050042 22 198 11.3 24.1 0.00 0.00 0.00 63 1013.6
20230208045540 22 131 11.3 24.1 0.00 0.00 0.00 62 1013.5
20230208045040 22 155 9.7 24.1 0.00 0.00 0.00 62 1013.5
20230208044542 22 190 11.3 24.1 0.00 0.00 0.00 62 1013.6
20230208043541 22 159 4.8 20.9 0.00 0.00 0.00 62 1013.6
20230208043048 22 177 4.8 16.1 0.00 0.00 0.00 61 1013.7
20230208042542 22 192 4.8 16.1 0.00 0.00 0.00 61 1013.6
20230208042040 22 184 4.8 17.7 0.00 0.00 0.00 60 1013.6
20230208041539 22 198 4.8 16.1 0.00 0.00 0.00 60 1013.9
20230208041038 22 169 8.0 17.7 0.00 0.00 0.00 60 1013.9
20230208040538 23 169 9.7 17.7 0.00 0.00 0.00 58 1014.0
20230208040039 23 209 6.4 24.1 0.00 0.00 0.00 58 1014.0
20230208035539 23 217 9.7 24.1 0.00 0.00 0.00 58 1014.1
20230208035037 23 181 6.4 17.7 0.00 0.00 0.00 57 1014.1
20230208034549 23 197 4.8 14.5 0.00 0.00 0.00 55 1014.1
20230208033534 24 161 3.2 16.1 0.00 0.00 0.00 55 1014.1
20230208033040 24 175 6.4 16.1 0.00 0.00 0.00 55 1014.2
20230208032534 24 180 4.8 20.9 0.00 0.00 0.00 54 1014.2
20230208032032 24 151 0.0 9.7 0.00 0.00 0.00 54 1014.3
20230208031533 24 179 1.6 9.7 0.00 0.00 0.00 54 1014.3
20230208031032 24 164 1.6 16.1 0.00 0.00 0.00 54 1014.4
20230208030532 25 130 3.2 16.1 0.00 0.00 0.00 54 1014.4
20230208030031 25 192 1.6 9.7 0.00 0.00 0.00 52 1014.5
20230208025529 24 36 1.6 11.3 0.00 0.00 0.00 52 1014.6
20230208025030 24 93 1.6 11.3 0.00 0.00 0.00 54 1014.6
20230208024529 24 153 3.2 12.9 0.00 0.00 0.00 54 1014.7
20230208023528 24 120 3.2 9.7 0.00 0.00 0.00 53 1015.0
20230208023034 24 147 0.0 14.5 0.00 0.00 0.00 53 1015.0
20230208022527 24 59 4.8 14.5 0.00 0.00 0.00 54 1015.2
20230208022026 24 148 3.2 11.3 0.00 0.00 0.00 53 1015.1
20230208021528 24 142 1.6 12.9 0.00 0.00 0.00 54 1015.2
20230208021025 25 126 1.6 12.9 0.00 0.00 0.00 53 1015.2
20230208020524 25 149 4.8 11.3 0.00 0.00 0.00 54 1015.2
20230208020023 24 103 1.6 14.5 0.00 0.00 0.00 55 1015.3
20230208015522 24 101 0.0 14.5 0.00 0.00 0.00 55 1015.4
20230208015022 24 159 4.8 20.9 0.00 0.00 0.00 54 1015.5
20230208014521 23 119 3.2 20.9 0.00 0.00 0.00 54 1015.4
20230208013523 23 118 6.4 12.9 0.00 0.00 0.00 57 1015.7
20230208013023 23 93 0.0 16.1 0.00 0.00 0.00 56 1015.8
20230208012520 23 96 6.4 16.1 0.00 0.00 0.00 56 1016.0
20230208012020 23 150 1.6 11.3 0.00 0.00 0.00 57 1016.1
20230208011519 23 152 1.6 12.9 0.00 0.00 0.00 57 1016.1
20230208011018 22 146 3.2 11.3 0.00 0.00 0.00 58 1016.2
20230208010518 22 111 1.6 12.9 0.00 0.00 0.00 58 1016.2
20230208010035 23 157 4.8 12.9 0.00 0.00 0.00 57 1016.3
20230208005520 22 82 3.2 11.3 0.00 0.00 0.00 58 1016.3
20230208005016 22 80 0.0 12.9 0.00 0.00 0.00 57 1016.3
20230208004515 22 134 4.8 14.5 0.00 0.00 0.00 57 1016.4
20230208003511 22 84 1.6 12.9 0.00 0.00 0.00 59 1016.6
20230208003009 22 136 1.6 12.9 0.00 0.00 0.00 57 1016.6
20230208002509 22 167 3.2 12.9 0.00 0.00 0.00 58 1016.6
20230208002007 21 105 0.0 12.9 0.00 0.00 0.00 59 1016.7
20230208001515 21 101 3.2 14.5 0.00 0.00 0.00 59 1016.8
20230208001009 21 83 3.2 12.9 0.00 0.00 0.00 60 1016.7
20230208000505 21 80 3.2 16.1 0.00 0.00 0.00 61 1016.7
20230208000005 21 79 3.2 16.1 0.00 0.00 0.00 62 1016.7
20230207235502 20 59 4.8 16.1 0.00 0.00 0.00 62 1016.8
20230207235104 20 88 6.4 14.5 0.00 0.00 0.00 64 1016.8
20230207234600 20 116 4.8 11.3 0.00 0.00 0.00 65 1016.8
20230207234200 20 132 0.0 19.3 0.00 0.00 0.00 64 1016.9
20230207233503 20 105 1.6 19.3 0.00 0.00 0.00 64 1016.9
20230207233112 20 80 9.7 19.3 0.00 0.00 0.00 66 1016.9
20230207232558 20 71 4.8 12.9 0.00 0.00 0.00 66 1016.9
20230207232100 19 78 1.6 14.5 0.00 0.00 0.00 67 1017.0
20230207231557 19 46 3.2 14.5 0.00 0.00 0.00 68 1017.1
20230207231059 18 113 1.6 12.9 0.00 0.00 0.00 68 1017.0
20230207230554 18 45 3.2 12.9 0.00 0.00 0.00 70 1017.1
20230207230053 18 120 3.2 11.3 0.00 0.00 0.00 70 1017.1
20230207225557 18 162 1.6 11.3 0.00 0.00 0.00 70 1017.1
20230207225052 18 118 1.6 9.7 0.00 0.00 0.00 70 1017.1
20230207224551 18 102 3.2 14.5 0.00 0.00 0.00 71 1017.1
20230207224151 17 94 0.0 12.9 0.00 0.00 0.00 71 1017.0
20230207223550 17 128 0.0 12.9 0.00 0.00 0.00 72 1017.0
20230207223049 17 138 3.2 12.9 0.00 0.00 0.00 71 1017.1
20230207222549 17 144 3.2 11.3 0.00 0.00 0.00 72 1017.1
20230207222047 17 103 1.6 9.7 0.00 0.00 0.00 72 1017.1
20230207221546 17 103 4.8 12.9 0.00 0.00 0.00 72 1017.1
20230207221046 17 73 3.2 12.9 0.00 0.00 0.00 73 1017.1
20230207220544 17 70 4.8 14.5 0.00 0.00 0.00 74 1017.1
20230207220042 17 117 3.2 8.0 0.00 0.00 0.00 75 1017.1
20230207215542 16 132 1.6 8.0 0.00 0.00 0.00 77 1017.1
20230207215041 16 74 0.0 9.7 0.00 0.00 0.00 77 1017.1
20230207214538 16 89 1.6 9.7 0.00 0.00 0.00 78 1017.2
20230207214138 15 126 0.0 6.4 0.00 0.00 0.00 79 1017.2
20230207213539 15 128 0.0 8.0 0.00 0.00 0.00 79 1017.2
20230207213050 15 87 0.0 0.0 0.00 0.00 0.00 80 1017.2
20230207212538 15 87 0.0 4.8 0.00 0.00 0.00 80 1017.2
20230207212037 15 87 0.0 4.8 0.00 0.00 0.00 81 1017.2
20230207211537 15 88 0.0 4.8 0.00 0.00 0.00 81 1017.2
20230207211037 15 88 0.0 3.2 0.00 0.00 0.00 81 1017.2
20230207210536 15 88 0.0 3.2 0.00 0.00 0.00 81 1017.3
20230207210048 15 88 0.0 0.0 0.00 0.00 0.00 81 1017.2
20230207205536 15 88 0.0 1.6 0.00 0.00 0.00 81 1017.2
20230207205035 14 88 0.0 3.2 0.00 0.00 0.00 82 1017.2
20230207204535 14 88 0.0 3.2 0.00 0.00 0.00 82 1017.2
20230207204136 14 88 0.0 3.2 0.00 0.00 0.00 82 1017.0
20230207203533 14 88 0.0 3.2 0.00 0.00 0.00 82 1017.0
20230207203031 14 88 0.0 3.2 0.00 0.00 0.00 82 1017.0
20230207202533 14 88 0.0 3.2 0.00 0.00 0.00 82 1016.9
20230207202032 14 88 0.0 3.2 0.00 0.00 0.00 82 1016.9
20230207201533 14 86 0.0 3.2 0.00 0.00 0.00 82 1016.8
20230207201031 14 86 0.0 0.0 0.00 0.00 0.00 83 1016.8
20230207200534 13 84 0.0 0.0 0.00 0.00 0.00 82 1016.8
20230207200031 13 84 0.0 0.0 0.00 0.00 0.00 83 1016.8
20230207195531 13 84 0.0 0.0 0.00 0.00 0.00 83 1016.8
20230207195031 13 84 0.0 0.0 0.00 0.00 0.00 83 1016.7
20230207194531 13 84 0.0 0.0 0.00 0.00 0.00 83 1016.8
20230207194129 13 84 0.0 0.0 0.00 0.00 0.00 83 1016.7
20230207193533 13 84 0.0 0.0 0.00 0.00 0.00 83 1016.7
20230207193035 13 84 0.0 0.0 0.00 0.00 0.00 83 1016.6
20230207192534 13 84 0.0 0.0 0.00 0.00 0.00 83 1016.6
20230207192033 13 84 0.0 0.0 0.00 0.00 0.00 83 1016.6
20230207191533 13 84 0.0 0.0 0.00 0.00 0.00 83 1016.6
20230207191033 13 84 0.0 0.0 0.00 0.00 0.00 84 1016.6
20230207190534 13 84 0.0 0.0 0.00 0.00 0.00 84 1016.6
20230207190033 13 84 0.0 0.0 0.00 0.00 0.00 84 1016.6
20230207185532 13 84 0.0 0.0 0.00 0.00 0.00 84 1016.5
20230207185032 13 84 0.0 0.0 0.00 0.00 0.00 85 1016.5
20230207184538 13 84 0.0 0.0 0.00 0.00 0.00 85 1016.5
20230207184133 13 84 0.0 0.0 0.00 0.00 0.00 85 1016.5
20230207183531 13 84 0.0 0.0 0.00 0.00 0.00 85 1016.5
20230207183040 13 84 0.0 0.0 0.00 0.00 0.00 85 1016.5
20230207182528 13 84 0.0 0.0 0.00 0.00 0.00 86 1016.5
20230207182027 13 84 0.0 0.0 0.00 0.00 0.00 86 1016.5
20230207181527 13 84 0.0 0.0 0.00 0.00 0.00 86 1016.5
20230207181027 13 84 0.0 0.0 0.00 0.00 0.00 86 1016.5
20230207180529 13 84 0.0 0.0 0.00 0.00 0.00 86 1016.6
20230207180027 13 84 0.0 0.0 0.00 0.00 0.00 86 1016.6
20230207175525 13 84 0.0 0.0 0.00 0.00 0.00 86 1016.6
20230207175029 13 84 0.0 0.0 0.00 0.00 0.00 86 1016.6
20230207174526 12 84 0.0 0.0 0.00 0.00 0.00 86 1016.7
20230207174124 12 84 0.0 0.0 0.00 0.00 0.00 86 1016.7
20230207173527 12 84 0.0 0.0 0.00 0.00 0.00 86 1016.7
20230207173036 12 84 0.0 0.0 0.00 0.00 0.00 85 1016.7
20230207172524 12 84 0.0 0.0 0.00 0.00 0.00 85 1016.7
20230207172022 12 84 0.0 0.0 0.00 0.00 0.00 85 1016.8
20230207171525 12 84 0.0 0.0 0.00 0.00 0.00 85 1016.8
20230207171022 12 84 0.0 0.0 0.00 0.00 0.00 84 1016.9
20230207170524 12 84 0.0 0.0 0.00 0.00 0.00 85 1016.9
20230207170026 12 84 0.0 0.0 0.00 0.00 0.00 84 1016.9
20230207165520 12 84 0.0 0.0 0.00 0.00 0.00 84 1017.0
20230207165020 12 84 0.0 0.0 0.00 0.00 0.00 83 1017.0
20230207164520 12 84 0.0 0.0 0.00 0.00 0.00 83 1017.0
20230207164120 12 84 0.0 0.0 0.00 0.00 0.00 83 1017.1
20230207163522 13 84 0.0 0.0 0.00 0.00 0.00 83 1017.1
20230207163022 13 84 0.0 0.0 0.00 0.00 0.00 83 1017.0
20230207162520 13 84 0.0 0.0 0.00 0.00 0.00 83 1017.1
20230207162020 13 84 0.0 0.0 0.00 0.00 0.00 83 1017.2
20230207161518 13 84 0.0 0.0 0.00 0.00 0.00 83 1017.2
20230207161017 13 84 0.0 0.0 0.00 0.00 0.00 82 1017.2